Regional Weather Roundup
Issued by NWS

Home | Current Version | Previous Version | Graphics & Text | Print | Product List | Glossary On
Versions: 1 2 3 4 5 6 7 8 9 10 11 12 13 14 15 16 17 18 19 20 21 22 23 24 25 26 27 28 29 30 31 32 33 34 35 36 37 38 39 40 41 42 43 44 45 46 47 48 49 50
935
ASUS43 KFSD 231310
RWRSD

WEATHER ROUNDUP FOR SOUTH DAKOTA
NATIONAL WEATHER SERVICE SIOUX FALLS SD
800 AM CDT WED MAY 23 2018

NOTE: "FAIR" INDICATES FEW OR NO CLOUDS BELOW 12,000 FEET WITH NO
SIGNIFICANT WEATHER AND/OR OBSTRUCTIONS TO VISIBILITY.


SDZ001>005-009-010-012>017-231400-
NORTHWEST AND NORTH CENTRAL SOUTH DAKOTA

CITY           SKY/WX    TMP DP  RH WIND       PRES   REMARKS
BUFFALO          N/A     60  58  92 S6        29.84S
FAITH            N/A     61  61 100 S7        29.91R
MOBRIDGE       CLOUDY    66  62  87 E9        29.86S
$$

SDZ012>016-024>037-041>051-057-063-072>074-231400-
SOUTHWEST AND SOUTH CENTRAL SOUTH DAKOTA

CITY           SKY/WX    TMP DP  RH WIND       PRES   REMARKS
RAPID CTY ARPT CLOUDY    59  58  96 NE5       29.93R
PIERRE         PTSUNNY   65  62  90 E21G26    29.87S
CUSTER         SUNNY     51  48  89 CALM      30.00S
ELLSWORTH AFB  CLOUDY    58  58 100 SW3       29.93
PHILIP         CLOUDY    63  63 100 E8        29.87R
PINE RIDGE     CLOUDY    56  56 100 W8        29.94R
SPEARFISH      PTSUNNY   57  52  82 W3        29.96R
WINNER         FAIR      69  63  81 E9        29.91R
$$

SDZ004>011-016>023-039-040-231400-
NORTHEAST SOUTH DAKOTA

CITY           SKY/WX    TMP DP  RH WIND       PRES   REMARKS
ABERDEEN       PTSUNNY   67  63  87 S10       29.98R THUNDER
WATERTOWN      CLOUDY    65  63  93 VRB7      30.03S
BROOKINGS      CLOUDY    65  61  87 SE12      30.03R
SISSETON         N/A     62  60  93 SE15      30.01F
$$

SDZ017-020-022-023-036>040-048>070-231400-
SOUTHEAST SOUTH DAKOTA

CITY           SKY/WX    TMP DP  RH WIND       PRES   REMARKS
SIOUX FALLS    CLOUDY    68  64  87 SE14      30.01S
HURON          CLOUDY    66  63  90 SE10      29.95R THUNDER
CHAMBERLAIN    CLOUDY    67  67 100 E8        29.94R FOG
MITCHELL       PTSUNNY   68  64  87 SE8       29.96R
YANKTON        MOSUNNY   69  64  84 SE8       29.98R
$$

ABBREVIATIONS USED IN REMARKS
   TC - TEMPERATURE IN CELSIUS
  WCI - WIND CHILL INDEX
   HX - HEAT INDEX
  VSB - VISIBILITY





USA.gov is the U.S. government's official web portal to all federal, state and local government web resources and services.